Time,TemperatureF,DewpointF,PressureIn,WindDirection,WindDirectionDegrees,WindSpeedMPH,WindSpeedGustMPH,Humidity,HourlyPrecipIn,Conditions,Clouds,dailyrainin,SoftwareType,DateUTC
2013-05-20 00:04:00,60.6,31.3,29.78,NW,322,2.0,3.0,33,0.00,,,0.00,Wunderground v.1.15,2013-05-20 06:04:00,
2013-05-20 00:10:00,60.6,31.3,29.79,NW,311,2.0,3.0,33,0.00,,,0.00,Wunderground v.1.15,2013-05-20 06:10:00,
2013-05-20 00:20:00,60.6,31.3,29.79,NW,312,3.0,3.0,33,0.00,,,0.00,Wunderground v.1.15,2013-05-20 06:20:00,
2013-05-20 00:25:00,60.6,31.3,29.80,NW,318,3.0,4.0,33,0.00,,,0.00,Wunderground v.1.15,2013-05-20 06:25:00,
2013-05-20 00:30:00,60.7,30.6,29.80,NNW,333,4.0,14.0,32,0.00,,,0.00,Wunderground v.1.15,2013-05-20 06:30:00,
2013-05-20 00:35:00,60.6,30.6,29.80,WNW,302,4.0,14.0,32,0.00,,,0.00,Wunderground v.1.15,2013-05-20 06:35:00,
2013-05-20 00:40:00,60.5,30.5,29.80,NW,308,5.0,6.0,32,0.00,,,0.00,Wunderground v.1.15,2013-05-20 06:40:00,
2013-05-20 00:45:00,60.5,30.5,29.80,WNW,302,5.0,6.0,32,0.00,,,0.00,Wunderground v.1.15,2013-05-20 06:45:00,
2013-05-20 00:50:00,60.4,30.4,29.80,NW,325,5.0,6.0,32,0.00,,,0.00,Wunderground v.1.15,2013-05-20 06:50:00,
2013-05-20 00:55:00,60.3,30.3,29.80,NW,309,5.0,6.0,32,0.00,,,0.00,Wunderground v.1.15,2013-05-20 06:55:00,
2013-05-20 01:00:00,60.3,30.3,29.80,NW,322,5.0,5.0,32,0.00,,,0.00,Wunderground v.1.15,2013-05-20 07:00:00,
2013-05-20 01:05:00,60.2,30.2,29.80,NW,316,5.0,5.0,32,0.00,,,0.00,Wunderground v.1.15,2013-05-20 07:05:00,
2013-05-20 01:15:00,60.0,30.8,29.80,NW,318,4.0,7.0,33,0.00,,,0.00,Wunderground v.1.15,2013-05-20 07:15:00,
2013-05-20 01:20:00,59.8,30.6,29.80,NW,325,4.0,4.0,33,0.00,,,0.00,Wunderground v.1.15,2013-05-20 07:20:00,
2013-05-20 01:25:00,59.8,30.6,29.80,NW,323,3.0,4.0,33,0.00,,,0.00,Wunderground v.1.15,2013-05-20 07:25:00,
2013-05-20 01:30:00,59.7,30.5,29.80,NW,325,3.0,9.0,33,0.00,,,0.00,Wunderground v.1.15,2013-05-20 07:30:00,
2013-05-20 01:35:00,59.6,30.4,29.80,NNW,329,4.0,9.0,33,0.00,,,0.00,Wunderground v.1.15,2013-05-20 07:35:00,
2013-05-20 01:45:00,59.4,31.0,29.80,NNW,343,4.0,5.0,34,0.00,,,0.00,Wunderground v.1.15,2013-05-20 07:45:00,
2013-05-20 01:50:00,59.2,30.8,29.80,North,9,3.0,3.0,34,0.00,,,0.00,Wunderground v.1.15,2013-05-20 07:50:00,
2013-05-20 01:55:00,59.0,31.4,29.80,NNW,327,3.0,3.0,35,0.00,,,0.00,Wunderground v.1.15,2013-05-20 07:55:00,
2013-05-20 02:00:00,59.0,31.4,29.80,NW,316,3.0,3.0,35,0.00,,,0.00,Wunderground v.1.15,2013-05-20 08:00:00,
2013-05-20 02:05:00,58.9,32.0,29.80,NW,311,2.0,3.0,36,0.00,,,0.00,Wunderground v.1.15,2013-05-20 08:05:00,
2013-05-20 02:10:00,58.7,31.8,29.79,NNE,18,2.0,2.0,36,0.00,,,0.00,Wunderground v.1.15,2013-05-20 08:10:00,
2013-05-20 02:15:00,58.5,31.6,29.79,North,355,1.0,3.0,36,0.00,,,0.00,Wunderground v.1.15,2013-05-20 08:15:00,
2013-05-20 02:20:00,58.4,31.5,29.79,North,355,1.0,1.0,36,0.00,,,0.00,Wunderground v.1.15,2013-05-20 08:20:00,
2013-05-20 02:24:00,58.3,31.4,29.79,North,355,0.0,1.0,36,0.00,,,0.00,Wunderground v.1.15,2013-05-20 08:24:00,
2013-05-20 02:30:00,58.2,31.3,29.79,NW,326,1.0,1.0,36,0.00,,,0.00,Wunderground v.1.15,2013-05-20 08:30:00,
2013-05-20 02:35:00,58.1,31.3,29.79,NW,326,0.0,1.0,36,0.00,,,0.00,Wunderground v.1.15,2013-05-20 08:35:00,
2013-05-20 02:40:00,58.1,31.3,29.79,NW,326,0.0,0.0,36,0.00,,,0.00,Wunderground v.1.15,2013-05-20 08:40:00,
2013-05-20 02:45:00,58.0,31.2,29.78,NW,326,0.0,0.0,36,0.00,,,0.00,Wunderground v.1.15,2013-05-20 08:45:00,
2013-05-20 02:50:00,58.0,31.2,29.78,NW,326,0.0,0.0,36,0.00,,,0.00,Wunderground v.1.15,2013-05-20 08:50:00,
2013-05-20 03:00:00,57.9,31.8,29.77,NW,326,0.0,0.0,37,0.00,,,0.00,Wunderground v.1.15,2013-05-20 09:00:00,
2013-05-20 03:05:00,57.8,31.7,29.78,NW,326,0.0,0.0,37,0.00,,,0.00,Wunderground v.1.15,2013-05-20 09:05:00,
2013-05-20 03:10:00,57.7,31.6,29.78,NW,326,0.0,0.0,37,0.00,,,0.00,Wunderground v.1.15,2013-05-20 09:10:00,
2013-05-20 03:15:00,57.7,31.6,29.78,NW,326,0.0,0.0,37,0.00,,,0.00,Wunderground v.1.15,2013-05-20 09:15:00,
2013-05-20 03:19:00,57.5,31.4,29.78,NW,326,0.0,0.0,37,0.00,,,0.00,Wunderground v.1.15,2013-05-20 09:19:00,
2013-05-20 03:25:00,57.4,31.3,29.78,NW,326,0.0,0.0,37,0.00,,,0.00,Wunderground v.1.15,2013-05-20 09:25:00,
2013-05-20 03:30:00,57.3,31.2,29.78,NW,326,0.0,2.0,37,0.00,,,0.00,Wunderground v.1.15,2013-05-20 09:30:00,
2013-05-20 03:35:00,57.2,31.1,29.78,NW,326,0.0,2.0,37,0.00,,,0.00,Wunderground v.1.15,2013-05-20 09:35:00,
2013-05-20 03:40:00,57.2,31.8,29.79,NW,326,0.0,0.0,38,0.00,,,0.00,Wunderground v.1.15,2013-05-20 09:40:00,
2013-05-20 03:45:00,57.2,31.8,29.78,NW,326,0.0,0.0,38,0.00,,,0.00,Wunderground v.1.15,2013-05-20 09:45:00,
2013-05-20 03:50:00,57.1,31.7,29.79,NW,326,0.0,0.0,38,0.00,,,0.00,Wunderground v.1.15,2013-05-20 09:50:00,
2013-05-20 04:00:00,56.8,31.4,29.79,NW,326,0.0,0.0,38,0.00,,,0.00,Wunderground v.1.15,2013-05-20 10:00:00,
2013-05-20 04:04:00,56.6,31.9,29.79,NW,326,0.0,0.0,39,0.00,,,0.00,Wunderground v.1.15,2013-05-20 10:04:00,
2013-05-20 04:10:00,56.3,32.3,29.79,NW,326,0.0,0.0,40,0.00,,,0.00,Wunderground v.1.15,2013-05-20 10:10:00,
2013-05-20 04:20:00,55.8,31.8,29.80,NW,326,0.0,0.0,40,0.00,,,0.00,Wunderground v.1.15,2013-05-20 10:20:00,
2013-05-20 04:30:00,55.3,32.0,29.80,NW,326,0.0,0.0,41,0.00,,,0.00,Wunderground v.1.15,2013-05-20 10:30:00,
2013-05-20 04:35:00,55.0,31.7,29.80,NW,326,0.0,0.0,41,0.00,,,0.00,Wunderground v.1.15,2013-05-20 10:35:00,
2013-05-20 04:40:00,54.8,32.1,29.80,NW,326,0.0,0.0,42,0.00,,,0.00,Wunderground v.1.15,2013-05-20 10:40:00,
2013-05-20 04:50:00,54.3,32.3,29.80,NW,326,0.0,0.0,43,0.00,,,0.00,Wunderground v.1.15,2013-05-20 10:50:00,
2013-05-20 04:54:00,54.2,32.2,29.80,NW,326,0.0,0.0,43,0.00,,,0.00,Wunderground v.1.15,2013-05-20 10:54:00,
2013-05-20 05:00:00,54.0,32.6,29.80,NW,326,0.0,0.0,44,0.00,,,0.00,Wunderground v.1.15,2013-05-20 11:00:00,
2013-05-20 05:10:00,53.5,32.7,29.81,NW,326,0.0,0.0,45,0.00,,,0.00,Wunderground v.1.15,2013-05-20 11:10:00,
2013-05-20 05:15:00,53.3,32.5,29.81,NW,326,0.0,0.0,45,0.00,,,0.00,Wunderground v.1.15,2013-05-20 11:15:00,
2013-05-20 05:20:00,52.9,32.1,29.81,NW,326,0.0,0.0,45,0.00,,,0.00,Wunderground v.1.15,2013-05-20 11:20:00,
2013-05-20 05:25:00,52.7,32.5,29.81,NW,326,0.0,0.0,46,0.00,,,0.00,Wunderground v.1.15,2013-05-20 11:25:00,
2013-05-20 05:29:00,52.6,32.4,29.81,NW,326,0.0,0.0,46,0.00,,,0.00,Wunderground v.1.15,2013-05-20 11:29:00,
2013-05-20 05:35:00,52.4,32.7,29.81,NW,326,0.0,0.0,47,0.00,,,0.00,Wunderground v.1.15,2013-05-20 11:35:00,
2013-05-20 05:45:00,52.0,32.9,29.82,NW,326,0.0,0.0,48,0.00,,,0.00,Wunderground v.1.15,2013-05-20 11:45:00,
2013-05-20 05:50:00,51.8,32.7,29.82,NW,326,0.0,0.0,48,0.00,,,0.00,Wunderground v.1.15,2013-05-20 11:50:00,
2013-05-20 05:55:00,51.7,32.6,29.82,NW,326,0.0,0.0,48,0.00,,,0.00,Wunderground v.1.15,2013-05-20 11:55:00,
2013-05-20 06:00:00,51.5,32.4,29.83,NW,326,0.0,0.0,48,0.00,,,0.00,Wunderground v.1.15,2013-05-20 12:00:00,
2013-05-20 06:09:00,51.2,32.2,29.83,NW,326,0.0,0.0,48,0.00,,,0.00,Wunderground v.1.15,2013-05-20 12:09:00,
2013-05-20 06:14:00,51.2,32.2,29.83,NW,326,0.0,0.0,48,0.00,,,0.00,Wunderground v.1.15,2013-05-20 12:14:00,
2013-05-20 06:20:00,51.2,31.6,29.83,NW,326,0.0,0.0,47,0.00,,,0.00,Wunderground v.1.15,2013-05-20 12:20:00,
2013-05-20 06:25:00,51.2,31.6,29.84,NW,326,0.0,0.0,47,0.00,,,0.00,Wunderground v.1.15,2013-05-20 12:25:00,
2013-05-20 06:30:00,51.3,31.7,29.83,NW,326,0.0,0.0,47,0.00,,,0.00,Wunderground v.1.15,2013-05-20 12:30:00,
2013-05-20 06:35:00,51.3,32.3,29.84,NW,326,0.0,0.0,48,0.00,,,0.00,Wunderground v.1.15,2013-05-20 12:35:00,
2013-05-20 06:40:00,51.4,31.8,29.84,NW,326,0.0,0.0,47,0.00,,,0.00,Wunderground v.1.15,2013-05-20 12:40:00,
2013-05-20 06:45:00,51.4,32.3,29.83,NW,326,0.0,0.0,48,0.00,,,0.00,Wunderground v.1.15,2013-05-20 12:45:00,
2013-05-20 06:50:00,51.6,32.0,29.84,NW,326,0.0,0.0,47,0.00,,,0.00,Wunderground v.1.15,2013-05-20 12:50:00,
2013-05-20 06:55:00,51.9,32.3,29.84,NW,326,0.0,0.0,47,0.00,,,0.00,Wunderground v.1.15,2013-05-20 12:55:00,
2013-05-20 06:59:00,52.2,32.0,29.84,NW,326,0.0,0.0,46,0.00,,,0.00,Wunderground v.1.15,2013-05-20 12:59:00,
2013-05-20 07:05:00,52.4,32.2,29.84,NW,326,0.0,0.0,46,0.00,,,0.00,Wunderground v.1.15,2013-05-20 13:05:00,
2013-05-20 07:15:00,52.9,32.7,29.84,NW,326,0.0,0.0,46,0.00,,,0.00,Wunderground v.1.15,2013-05-20 13:15:00,
2013-05-20 07:20:00,53.2,32.9,29.84,NW,326,0.0,0.0,46,0.00,,,0.00,Wunderground v.1.15,2013-05-20 13:20:00,
2013-05-20 07:25:00,53.5,33.2,29.84,NW,326,0.0,0.0,46,0.00,,,0.00,Wunderground v.1.15,2013-05-20 13:25:00,
2013-05-20 07:35:00,54.5,33.0,29.84,NW,326,0.0,1.0,44,0.00,,,0.00,Wunderground v.1.15,2013-05-20 13:35:00,
2013-05-20 07:44:00,56.0,33.2,29.84,NW,312,0.0,0.0,42,0.00,,,0.00,Wunderground v.1.15,2013-05-20 13:44:00,
2013-05-20 07:50:00,56.8,33.3,29.84,NW,312,0.0,0.0,41,0.00,,,0.00,Wunderground v.1.15,2013-05-20 13:50:00,
2013-05-20 07:55:00,58.0,33.2,29.84,NW,312,0.0,0.0,39,0.00,,,0.00,Wunderground v.1.15,2013-05-20 13:55:00,
2013-05-20 08:00:00,59.1,33.5,29.85,NW,312,0.0,0.0,38,0.00,,,0.00,Wunderground v.1.15,2013-05-20 14:00:00,
2013-05-20 08:05:00,60.4,34.0,29.84,NW,312,0.0,0.0,37,0.00,,,0.00,Wunderground v.1.15,2013-05-20 14:05:00,
2013-05-20 08:10:00,61.6,34.4,29.85,NW,312,0.0,0.0,36,0.00,,,0.00,Wunderground v.1.15,2013-05-20 14:10:00,
2013-05-20 08:15:00,62.8,34.0,29.85,NW,309,0.0,0.0,34,0.00,,,0.00,Wunderground v.1.15,2013-05-20 14:15:00,
2013-05-20 08:20:00,63.9,34.2,29.85,NW,309,0.0,0.0,33,0.00,,,0.00,Wunderground v.1.15,2013-05-20 14:20:00,
2013-05-20 08:25:00,64.8,34.2,29.85,NW,304,0.0,0.0,32,0.00,,,0.00,Wunderground v.1.15,2013-05-20 14:25:00,
2013-05-20 08:30:00,65.6,34.1,29.85,NW,304,1.0,1.0,31,0.00,,,0.00,Wunderground v.1.15,2013-05-20 14:30:00,
2013-05-20 08:35:00,66.8,34.3,29.85,NW,304,0.0,1.0,30,0.00,,,0.00,Wunderground v.1.15,2013-05-20 14:35:00,
2013-05-20 08:39:00,67.9,34.4,29.85,WNW,284,0.0,0.0,29,0.00,,,0.00,Wunderground v.1.15,2013-05-20 14:39:00,
2013-05-20 08:50:00,69.3,33.9,29.85,West,281,0.0,0.0,27,0.00,,,0.00,Wunderground v.1.15,2013-05-20 14:50:00,
2013-05-20 08:55:00,69.9,34.4,29.85,West,277,0.0,1.0,27,0.00,,,0.00,Wunderground v.1.15,2013-05-20 14:55:00,
2013-05-20 09:00:00,70.5,33.9,29.85,West,259,0.0,0.0,26,0.00,,,0.00,Wunderground v.1.15,2013-05-20 15:00:00,
2013-05-20 09:05:00,70.9,33.3,29.84,West,260,0.0,0.0,25,0.00,,,0.00,Wunderground v.1.15,2013-05-20 15:05:00,
2013-05-20 09:15:00,70.4,30.8,29.84,WNW,292,1.0,3.0,23,0.00,,,0.00,Wunderground v.1.15,2013-05-20 15:15:00,
2013-05-20 09:20:00,69.2,30.8,29.85,WNW,296,2.0,2.0,24,0.00,,,0.00,Wunderground v.1.15,2013-05-20 15:20:00,
2013-05-20 09:25:00,67.9,29.7,29.84,NW,309,2.0,2.0,24,0.00,,,0.00,Wunderground v.1.15,2013-05-20 15:25:00,
2013-05-20 09:29:00,67.0,30.0,29.84,NNW,338,2.0,4.0,25,0.00,,,0.00,Wunderground v.1.15,2013-05-20 15:29:00,
2013-05-20 09:35:00,66.0,30.1,29.84,NW,326,2.0,4.0,26,0.00,,,0.00,Wunderground v.1.15,2013-05-20 15:35:00,
2013-05-20 09:40:00,65.7,29.8,29.84,NW,306,2.0,2.0,26,0.00,,,0.00,Wunderground v.1.15,2013-05-20 15:40:00,
2013-05-20 09:45:00,66.7,29.7,29.84,NW,304,2.0,3.0,25,0.00,,,0.00,Wunderground v.1.15,2013-05-20 15:45:00,
2013-05-20 09:50:00,65.9,29.1,29.84,NW,311,3.0,3.0,25,0.00,,,0.00,Wunderground v.1.15,2013-05-20 15:50:00,
2013-05-20 09:55:00,65.9,30.0,29.84,NNE,24,3.0,3.0,26,0.00,,,0.00,Wunderground v.1.15,2013-05-20 15:55:00,
2013-05-20 10:00:00,66.7,29.7,29.84,North,5,2.0,4.0,25,0.00,,,0.00,Wunderground v.1.15,2013-05-20 16:00:00,
2013-05-20 10:04:00,66.6,28.6,29.84,NW,313,2.0,4.0,24,0.00,,,0.00,Wunderground v.1.15,2013-05-20 16:04:00,
2013-05-20 10:09:00,66.5,29.6,29.84,NW,313,2.0,2.0,25,0.00,,,0.00,Wunderground v.1.15,2013-05-20 16:09:00,
2013-05-20 10:15:00,66.4,29.5,29.84,NW,313,2.0,2.0,25,0.00,,,0.00,Wunderground v.1.15,2013-05-20 16:15:00,
2013-05-20 10:20:00,66.8,28.8,29.84,NW,309,3.0,3.0,24,0.00,,,0.00,Wunderground v.1.15,2013-05-20 16:20:00,
2013-05-20 10:25:00,65.8,28.0,29.84,NW,317,3.0,3.0,24,0.00,,,0.00,Wunderground v.1.15,2013-05-20 16:25:00,
2013-05-20 10:30:00,66.3,28.4,29.84,NW,317,2.0,2.0,24,0.00,,,0.00,Wunderground v.1.15,2013-05-20 16:30:00,
2013-05-20 10:35:00,67.6,28.5,29.83,NW,317,1.0,2.0,23,0.00,,,0.00,Wunderground v.1.15,2013-05-20 16:35:00,
2013-05-20 10:40:00,68.2,29.0,29.83,NW,317,1.0,1.0,23,0.00,,,0.00,Wunderground v.1.15,2013-05-20 16:40:00,
2013-05-20 10:45:00,68.3,26.8,29.83,NW,318,2.0,4.0,21,0.00,,,0.00,Wunderground v.1.15,2013-05-20 16:45:00,
2013-05-20 10:50:00,68.0,27.7,29.83,NNW,328,2.0,3.0,22,0.00,,,0.00,Wunderground v.1.15,2013-05-20 16:50:00,
2013-05-20 10:54:00,67.1,26.9,29.83,NW,308,3.0,3.0,22,0.00,,,0.00,Wunderground v.1.15,2013-05-20 16:54:00,
2013-05-20 10:59:00,66.8,27.8,29.83,NW,316,2.0,6.0,23,0.00,,,0.00,Wunderground v.1.15,2013-05-20 16:59:00,
2013-05-20 11:05:00,67.4,28.3,29.83,NW,317,1.0,6.0,23,0.00,,,0.00,Wunderground v.1.15,2013-05-20 17:05:00,
2013-05-20 11:15:00,66.6,27.6,29.83,NW,319,2.0,3.0,23,0.00,,,0.00,Wunderground v.1.15,2013-05-20 17:15:00,
2013-05-20 11:20:00,66.7,26.6,29.83,NW,319,1.0,1.0,22,0.00,,,0.00,Wunderground v.1.15,2013-05-20 17:20:00,
2013-05-20 11:25:00,67.6,27.4,29.83,NW,311,2.0,2.0,22,0.00,,,0.00,Wunderground v.1.15,2013-05-20 17:25:00,
2013-05-20 11:30:00,68.8,28.4,29.83,NW,311,2.0,2.0,22,0.00,,,0.00,Wunderground v.1.15,2013-05-20 17:30:00,
2013-05-20 11:35:00,70.1,28.3,29.82,NW,311,1.0,2.0,21,0.00,,,0.00,Wunderground v.1.15,2013-05-20 17:35:00,
2013-05-20 11:40:00,70.4,27.4,29.82,NW,311,1.0,1.0,20,0.00,,,0.00,Wunderground v.1.15,2013-05-20 17:40:00,
2013-05-20 11:45:00,70.2,27.2,29.82,NW,311,2.0,2.0,20,0.00,,,0.00,Wunderground v.1.15,2013-05-20 17:45:00,
2013-05-20 11:50:00,69.9,27.0,29.82,NW,310,1.0,1.0,20,0.00,,,0.00,Wunderground v.1.15,2013-05-20 17:50:00,
2013-05-20 12:00:00,71.7,27.2,29.82,NW,310,0.0,1.0,19,0.00,,,0.00,Wunderground v.1.15,2013-05-20 18:00:00,
2013-05-20 12:05:00,71.4,27.0,29.82,NW,314,2.0,3.0,19,0.00,,,0.00,Wunderground v.1.15,2013-05-20 18:05:00,
2013-05-20 12:14:00,71.4,27.0,29.81,NW,322,2.0,3.0,19,0.00,,,0.00,Wunderground v.1.15,2013-05-20 18:14:00,
2013-05-20 12:25:00,74.9,27.1,29.81,WNW,300,0.0,4.0,17,0.00,,,0.00,Wunderground v.1.15,2013-05-20 18:25:00,
2013-05-20 12:35:00,71.6,27.1,29.81,NW,316,3.0,7.0,19,0.00,,,0.00,Wunderground v.1.15,2013-05-20 18:35:00,
2013-05-20 12:40:00,71.7,25.9,29.81,NW,316,2.0,2.0,18,0.00,,,0.00,Wunderground v.1.15,2013-05-20 18:40:00,
2013-05-20 12:45:00,71.6,27.1,29.81,NW,316,1.0,2.0,19,0.00,,,0.00,Wunderground v.1.15,2013-05-20 18:45:00,
2013-05-20 12:50:00,73.3,27.2,29.80,WNW,293,1.0,1.0,18,0.00,,,0.00,Wunderground v.1.15,2013-05-20 18:50:00,
2013-05-20 12:55:00,75.0,25.7,29.80,WNW,290,0.0,1.0,16,0.00,,,0.00,Wunderground v.1.15,2013-05-20 18:55:00,
2013-05-20 12:59:00,75.5,24.6,29.80,WNW,290,0.0,0.0,15,0.00,,,0.00,Wunderground v.1.15,2013-05-20 18:59:00,
2013-05-20 13:04:00,74.9,25.6,29.80,WNW,290,1.0,1.0,16,0.00,,,0.00,Wunderground v.1.15,2013-05-20 19:04:00,
2013-05-20 13:10:00,73.9,24.8,29.80,WNW,290,1.0,2.0,16,0.00,,,0.00,Wunderground v.1.15,2013-05-20 19:10:00,
2013-05-20 13:15:00,74.4,25.2,29.79,WNW,298,0.0,2.0,16,0.00,,,0.00,Wunderground v.1.15,2013-05-20 19:15:00,
2013-05-20 13:20:00,75.6,24.7,29.79,WNW,288,1.0,1.0,15,0.00,,,0.00,Wunderground v.1.15,2013-05-20 19:20:00,
2013-05-20 13:25:00,76.2,25.1,29.78,WNW,286,0.0,1.0,15,0.00,,,0.00,Wunderground v.1.15,2013-05-20 19:25:00,
2013-05-20 13:30:00,76.3,23.6,29.78,WNW,286,0.0,9.0,14,0.00,,,0.00,Wunderground v.1.15,2013-05-20 19:30:00,
2013-05-20 13:35:00,76.3,23.6,29.78,WNW,286,0.0,9.0,14,0.00,,,0.00,Wunderground v.1.15,2013-05-20 19:35:00,
2013-05-20 13:39:00,76.6,25.5,29.78,WNW,286,0.0,0.0,15,0.00,,,0.00,Wunderground v.1.15,2013-05-20 19:39:00,
2013-05-20 13:44:00,77.1,24.2,29.78,NW,305,1.0,1.0,14,0.00,,,0.00,Wunderground v.1.15,2013-05-20 19:44:00,
2013-05-20 13:49:00,77.3,24.4,29.78,NW,305,1.0,1.0,14,0.00,,,0.00,Wunderground v.1.15,2013-05-20 19:49:00,
2013-05-20 13:55:00,77.4,24.4,29.78,WNW,299,1.0,1.0,14,0.00,,,0.00,Wunderground v.1.15,2013-05-20 19:55:00,
2013-05-20 14:00:00,77.6,22.8,29.78,WNW,299,0.0,0.0,13,0.00,,,0.00,Wunderground v.1.15,2013-05-20 20:00:00,
2013-05-20 14:05:00,77.8,24.8,29.77,WNW,299,0.0,0.0,14,0.00,,,0.00,Wunderground v.1.15,2013-05-20 20:05:00,
2013-05-20 14:10:00,77.5,22.7,29.77,WNW,299,1.0,3.0,13,0.00,,,0.00,Wunderground v.1.15,2013-05-20 20:10:00,
2013-05-20 14:15:00,76.8,22.2,29.77,WNW,299,1.0,3.0,13,0.00,,,0.00,Wunderground v.1.15,2013-05-20 20:15:00,
2013-05-20 14:20:00,75.1,24.3,29.76,NNE,13,1.0,1.0,15,0.00,,,0.00,Wunderground v.1.15,2013-05-20 20:20:00,
2013-05-20 14:25:00,74.1,23.5,29.76,NNE,13,0.0,2.0,15,0.00,,,0.00,Wunderground v.1.15,2013-05-20 20:25:00,
2013-05-20 14:35:00,74.8,22.4,29.76,NNW,329,1.0,4.0,14,0.00,,,0.00,Wunderground v.1.15,2013-05-20 20:35:00,
2013-05-20 14:45:00,73.5,19.6,29.75,NW,309,2.0,2.0,13,0.00,,,0.00,Wunderground v.1.15,2013-05-20 20:45:00,
2013-05-20 14:50:00,73.3,21.2,29.75,NW,309,1.0,1.0,14,0.00,,,0.00,Wunderground v.1.15,2013-05-20 20:50:00,
2013-05-20 14:55:00,74.0,21.7,29.75,NW,309,1.0,2.0,14,0.00,,,0.00,Wunderground v.1.15,2013-05-20 20:55:00,
2013-05-20 15:00:00,74.7,20.5,29.75,NW,309,1.0,1.0,13,0.00,,,0.00,Wunderground v.1.15,2013-05-20 21:00:00,
2013-05-20 15:05:00,75.8,17.5,29.74,NW,309,1.0,2.0,11,0.00,,,0.00,Wunderground v.1.15,2013-05-20 21:05:00,
2013-05-20 15:10:00,76.7,18.2,29.74,NW,304,1.0,1.0,11,0.00,,,0.00,Wunderground v.1.15,2013-05-20 21:10:00,
2013-05-20 15:19:00,77.7,16.7,29.74,WNW,285,1.0,1.0,10,0.00,,,0.00,Wunderground v.1.15,2013-05-20 21:19:00,
2013-05-20 15:25:00,77.6,18.9,29.74,WNW,287,1.0,1.0,11,0.00,,,0.00,Wunderground v.1.15,2013-05-20 21:25:00,
2013-05-20 15:30:00,77.5,18.8,29.74,West,275,1.0,1.0,11,0.00,,,0.00,Wunderground v.1.15,2013-05-20 21:30:00,
2013-05-20 15:35:00,78.4,14.8,29.73,West,279,1.0,1.0,9,0.00,,,0.00,Wunderground v.1.15,2013-05-20 21:35:00,
2013-05-20 15:40:00,79.4,12.9,29.73,West,279,1.0,1.0,8,0.00,,,0.00,Wunderground v.1.15,2013-05-20 21:40:00,
2013-05-20 15:45:00,80.0,13.4,29.73,West,279,0.0,2.0,8,0.00,,,0.00,Wunderground v.1.15,2013-05-20 21:45:00,
2013-05-20 15:50:00,80.1,10.4,29.73,WSW,250,1.0,1.0,7,0.00,,,0.00,Wunderground v.1.15,2013-05-20 21:50:00,
2013-05-20 15:55:00,80.7,7.4,29.72,WSW,257,1.0,1.0,6,0.00,,,0.00,Wunderground v.1.15,2013-05-20 21:55:00,
2013-05-20 16:00:00,81.2,7.8,29.72,WNW,282,1.0,1.0,6,0.00,,,0.00,Wunderground v.1.15,2013-05-20 22:00:00,
2013-05-20 16:04:00,81.6,11.5,29.72,WNW,288,1.0,1.0,7,0.00,,,0.00,Wunderground v.1.15,2013-05-20 22:04:00,
2013-05-20 16:09:00,81.9,8.3,29.72,West,275,1.0,1.0,6,0.00,,,0.00,Wunderground v.1.15,2013-05-20 22:09:00,
2013-05-20 16:15:00,81.8,8.2,29.72,WNW,292,1.0,1.0,6,0.00,,,0.00,Wunderground v.1.15,2013-05-20 22:15:00,
2013-05-20 16:20:00,81.5,8.0,29.72,WNW,294,1.0,1.0,6,0.00,,,0.00,Wunderground v.1.15,2013-05-20 22:20:00,
2013-05-20 16:25:00,81.4,7.9,29.71,West,276,1.0,2.0,6,0.00,,,0.00,Wunderground v.1.15,2013-05-20 22:25:00,
2013-05-20 16:35:00,80.7,7.4,29.71,NNW,333,1.0,6.0,6,0.00,,,0.00,Wunderground v.1.15,2013-05-20 22:35:00,
2013-05-20 16:40:00,80.5,7.3,29.71,West,279,1.0,1.0,6,0.00,,,0.00,Wunderground v.1.15,2013-05-20 22:40:00,
2013-05-20 16:50:00,79.8,6.8,29.70,ESE,117,2.0,3.0,6,0.00,,,0.00,Wunderground v.1.15,2013-05-20 22:50:00,
2013-05-20 16:55:00,80.2,7.1,29.70,ESE,114,3.0,3.0,6,0.00,,,0.00,Wunderground v.1.15,2013-05-20 22:55:00,
2013-05-20 17:00:00,80.1,7.0,29.70,South,190,4.0,4.0,6,0.00,,,0.00,Wunderground v.1.15,2013-05-20 23:00:00,
2013-05-20 17:05:00,80.1,7.0,29.70,SSE,160,3.0,4.0,6,0.00,,,0.00,Wunderground v.1.15,2013-05-20 23:05:00,
2013-05-20 17:10:00,78.9,6.1,29.69,South,184,3.0,3.0,6,0.00,,,0.00,Wunderground v.1.15,2013-05-20 23:10:00,
2013-05-20 17:20:00,79.1,9.7,29.69,South,177,2.0,2.0,7,0.00,,,0.00,Wunderground v.1.15,2013-05-20 23:20:00,
2013-05-20 17:25:00,78.2,9.0,29.69,West,281,2.0,2.0,7,0.00,,,0.00,Wunderground v.1.15,2013-05-20 23:25:00,
2013-05-20 17:30:00,76.7,10.9,29.69,NNW,327,3.0,3.0,8,0.00,,,0.00,Wunderground v.1.15,2013-05-20 23:30:00,
2013-05-20 17:35:00,75.4,15.0,29.69,WNW,300,3.0,5.0,10,0.00,,,0.00,Wunderground v.1.15,2013-05-20 23:35:00,
2013-05-20 17:39:00,74.9,16.8,29.70,NW,316,4.0,4.0,11,0.00,,,0.00,Wunderground v.1.15,2013-05-20 23:39:00,
2013-05-20 17:44:00,74.2,16.3,29.69,ENE,64,4.0,4.0,11,0.00,,,0.00,Wunderground v.1.15,2013-05-20 23:44:00,
2013-05-20 17:50:00,74.2,18.3,29.69,North,360,3.0,3.0,12,0.00,,,0.00,Wunderground v.1.15,2013-05-20 23:50:00,
2013-05-20 17:55:00,74.3,16.3,29.70,NNE,28,2.0,3.0,11,0.00,,,0.00,Wunderground v.1.15,2013-05-20 23:55:00,
2013-05-20 18:00:00,74.2,16.3,29.71,NW,321,2.0,2.0,11,0.00,,,0.00,Wunderground v.1.15,2013-05-21 00:00:00,
2013-05-20 18:05:00,73.6,17.8,29.71,NNW,331,2.0,3.0,12,0.00,,,0.00,Wunderground v.1.15,2013-05-21 00:05:00,
2013-05-20 18:10:00,73.3,17.6,29.71,WNW,289,3.0,4.0,12,0.00,,,0.00,Wunderground v.1.15,2013-05-21 00:10:00,
2013-05-20 18:15:00,73.1,19.3,29.71,NNW,334,3.0,4.0,13,0.00,,,0.00,Wunderground v.1.15,2013-05-21 00:15:00,
2013-05-20 18:20:00,72.7,20.7,29.72,NNW,328,3.0,3.0,14,0.00,,,0.00,Wunderground v.1.15,2013-05-21 00:20:00,
2013-05-20 18:25:00,72.6,20.6,29.72,NNE,16,3.0,3.0,14,0.00,,,0.00,Wunderground v.1.15,2013-05-21 00:25:00,
2013-05-20 18:29:00,72.4,22.1,29.73,NNW,331,3.0,5.0,15,0.00,,,0.00,Wunderground v.1.15,2013-05-21 00:29:00,
2013-05-20 18:34:00,71.9,21.7,29.73,NNW,331,5.0,5.0,15,0.00,,,0.00,Wunderground v.1.15,2013-05-21 00:34:00,
2013-05-20 18:39:00,71.8,23.2,29.72,North,5,4.0,6.0,16,0.00,,,0.00,Wunderground v.1.15,2013-05-21 00:39:00,
2013-05-20 18:45:00,71.6,23.0,29.73,WNW,296,4.0,6.0,16,0.00,,,0.00,Wunderground v.1.15,2013-05-21 00:45:00,
2013-05-20 18:55:00,71.5,22.9,29.74,North,10,3.0,6.0,16,0.00,,,0.00,Wunderground v.1.15,2013-05-21 00:55:00,
2013-05-20 19:00:00,71.3,22.7,29.75,NW,320,3.0,4.0,16,0.00,,,0.00,Wunderground v.1.15,2013-05-21 01:00:00,
2013-05-20 19:05:00,70.9,22.4,29.74,WSW,256,3.0,4.0,16,0.00,,,0.00,Wunderground v.1.15,2013-05-21 01:05:00,
2013-05-20 19:10:00,70.4,23.5,29.75,WNW,303,4.0,5.0,17,0.00,,,0.00,Wunderground v.1.15,2013-05-21 01:10:00,
2013-05-20 19:15:00,69.9,24.4,29.75,NW,322,4.0,6.0,18,0.00,,,0.00,Wunderground v.1.15,2013-05-21 01:15:00,
2013-05-20 19:20:00,69.2,23.9,29.75,NNW,328,5.0,6.0,18,0.00,,,0.00,Wunderground v.1.15,2013-05-21 01:20:00,
2013-05-20 19:25:00,68.9,23.6,29.75,ENE,57,6.0,6.0,18,0.00,,,0.00,Wunderground v.1.15,2013-05-21 01:25:00,
2013-05-20 19:30:00,68.4,26.9,29.76,NNW,331,6.0,6.0,21,0.00,,,0.00,Wunderground v.1.15,2013-05-21 01:30:00,
2013-05-20 19:35:00,67.9,28.7,29.77,NNW,340,5.0,7.0,23,0.00,,,0.00,Wunderground v.1.15,2013-05-21 01:35:00,
2013-05-20 19:40:00,66.9,29.9,29.77,NNW,344,7.0,7.0,25,0.00,,,0.00,Wunderground v.1.15,2013-05-21 01:40:00,
2013-05-20 19:45:00,66.5,29.6,29.78,North,5,7.0,12.0,25,0.00,,,0.00,Wunderground v.1.15,2013-05-21 01:45:00,
2013-05-20 19:50:00,66.1,29.2,29.78,NW,325,6.0,9.0,25,0.00,,,0.00,Wunderground v.1.15,2013-05-21 01:50:00,
2013-05-20 19:55:00,65.8,29.9,29.79,NNW,334,7.0,9.0,26,0.00,,,0.00,Wunderground v.1.15,2013-05-21 01:55:00,
2013-05-20 19:59:00,65.4,29.6,29.79,NW,316,7.0,10.0,26,0.00,,,0.00,Wunderground v.1.15,2013-05-21 01:59:00,
2013-05-20 20:09:00,65.1,29.3,29.80,NNW,333,5.0,8.0,26,0.00,,,0.00,Wunderground v.1.15,2013-05-21 02:09:00,
2013-05-20 20:15:00,64.8,30.0,29.79,North,355,6.0,8.0,27,0.00,,,0.00,Wunderground v.1.15,2013-05-21 02:15:00,
2013-05-20 20:25:00,64.3,29.6,29.80,NW,313,6.0,7.0,27,0.00,,,0.00,Wunderground v.1.15,2013-05-21 02:25:00,
2013-05-20 20:30:00,64.0,29.3,29.80,NNE,28,6.0,6.0,27,0.00,,,0.00,Wunderground v.1.15,2013-05-21 02:30:00,
2013-05-20 20:35:00,64.0,30.2,29.81,NNW,332,4.0,6.0,28,0.00,,,0.00,Wunderground v.1.15,2013-05-21 02:35:00,
2013-05-20 20:40:00,63.8,29.1,29.81,NNW,334,4.0,6.0,27,0.00,,,0.00,Wunderground v.1.15,2013-05-21 02:40:00,
2013-05-20 20:50:00,63.3,29.6,29.82,NNW,337,4.0,4.0,28,0.00,,,0.00,Wunderground v.1.15,2013-05-21 02:50:00,
2013-05-20 20:54:00,63.1,29.4,29.82,NNW,346,4.0,8.0,28,0.00,,,0.00,Wunderground v.1.15,2013-05-21 02:54:00,
2013-05-20 20:59:00,62.9,29.3,29.82,North,355,5.0,5.0,28,0.00,,,0.00,Wunderground v.1.15,2013-05-21 02:59:00,
2013-05-20 21:05:00,62.9,29.3,29.83,North,11,4.0,7.0,28,0.00,,,0.00,Wunderground v.1.15,2013-05-21 03:05:00,
2013-05-20 21:10:00,62.8,29.2,29.83,NNW,332,3.0,4.0,28,0.00,,,0.00,Wunderground v.1.15,2013-05-21 03:10:00,
2013-05-20 21:15:00,62.6,29.9,29.83,NW,315,3.0,4.0,29,0.00,,,0.00,Wunderground v.1.15,2013-05-21 03:15:00,
2013-05-20 21:20:00,62.3,29.6,29.83,North,355,3.0,3.0,29,0.00,,,0.00,Wunderground v.1.15,2013-05-21 03:20:00,
2013-05-20 21:30:00,62.0,30.2,29.83,NW,309,2.0,12.0,30,0.00,,,0.00,Wunderground v.1.15,2013-05-21 03:30:00,
2013-05-20 21:35:00,61.8,30.0,29.83,NNE,13,2.0,12.0,30,0.00,,,0.00,Wunderground v.1.15,2013-05-21 03:35:00,
2013-05-20 21:40:00,61.7,29.9,29.83,NNW,335,2.0,2.0,30,0.00,,,0.00,Wunderground v.1.15,2013-05-21 03:40:00,
2013-05-20 21:45:00,61.5,29.7,29.83,NNW,335,1.0,2.0,30,0.00,,,0.00,Wunderground v.1.15,2013-05-21 03:45:00,
2013-05-20 21:55:00,61.0,30.1,29.83,NNW,335,0.0,0.0,31,0.00,,,0.00,Wunderground v.1.15,2013-05-21 03:55:00,
2013-05-20 22:00:00,60.7,29.9,29.84,NNW,335,0.0,0.0,31,0.00,,,0.00,Wunderground v.1.15,2013-05-21 04:00:00,
2013-05-20 22:05:00,60.5,29.7,29.84,NNW,335,0.0,0.0,31,0.00,,,0.00,Wunderground v.1.15,2013-05-21 04:05:00,
2013-05-20 22:10:00,60.2,29.4,29.84,NNW,335,0.0,0.0,31,0.00,,,0.00,Wunderground v.1.15,2013-05-21 04:10:00,
2013-05-20 22:15:00,60.0,30.0,29.85,NNW,335,0.0,0.0,32,0.00,,,0.00,Wunderground v.1.15,2013-05-21 04:15:00,
2013-05-20 22:20:00,59.7,29.8,29.85,NNW,335,0.0,0.0,32,0.00,,,0.00,Wunderground v.1.15,2013-05-21 04:20:00,
2013-05-20 22:24:00,59.5,29.6,29.85,NNW,335,0.0,0.0,32,0.00,,,0.00,Wunderground v.1.15,2013-05-21 04:24:00,
2013-05-20 22:29:00,59.3,29.4,29.85,NNW,335,0.0,6.0,32,0.00,,,0.00,Wunderground v.1.15,2013-05-21 04:29:00,
2013-05-20 22:34:00,59.1,30.0,29.85,NNW,335,0.0,6.0,33,0.00,,,0.00,Wunderground v.1.15,2013-05-21 04:34:00,
2013-05-20 22:39:00,59.0,29.9,29.85,NNW,334,1.0,2.0,33,0.00,,,0.00,Wunderground v.1.15,2013-05-21 04:39:00,
2013-05-20 22:44:00,59.0,29.9,29.85,NNW,334,1.0,2.0,33,0.00,,,0.00,Wunderground v.1.15,2013-05-21 04:44:00,
2013-05-20 22:50:00,59.0,29.9,29.85,NNW,334,0.0,1.0,33,0.00,,,0.00,Wunderground v.1.15,2013-05-21 04:50:00,
2013-05-20 22:55:00,59.0,30.6,29.85,NNW,334,1.0,1.0,34,0.00,,,0.00,Wunderground v.1.15,2013-05-21 04:55:00,
2013-05-20 23:00:00,58.8,30.5,29.85,NNW,334,1.0,2.0,34,0.00,,,0.00,Wunderground v.1.15,2013-05-21 05:00:00,
2013-05-20 23:05:00,58.6,31.0,29.85,NNW,334,1.0,2.0,35,0.00,,,0.00,Wunderground v.1.15,2013-05-21 05:05:00,
2013-05-20 23:10:00,58.5,30.9,29.86,NNW,336,1.0,1.0,35,0.00,,,0.00,Wunderground v.1.15,2013-05-21 05:10:00,
2013-05-20 23:15:00,58.4,30.8,29.86,NNW,336,1.0,1.0,35,0.00,,,0.00,Wunderground v.1.15,2013-05-21 05:15:00,
2013-05-20 23:24:00,58.1,30.6,29.86,NNW,336,0.0,0.0,35,0.00,,,0.00,Wunderground v.1.15,2013-05-21 05:24:00,
2013-05-20 23:30:00,57.9,31.1,29.86,NNW,336,0.0,3.0,36,0.00,,,0.00,Wunderground v.1.15,2013-05-21 05:30:00,
2013-05-20 23:35:00,57.8,31.0,29.86,NNW,336,1.0,3.0,36,0.00,,,0.00,Wunderground v.1.15,2013-05-21 05:35:00,
2013-05-20 23:45:00,57.6,30.8,29.87,NNW,336,1.0,4.0,36,0.00,,,0.00,Wunderground v.1.15,2013-05-21 05:45:00,
2013-05-20 23:50:00,57.5,30.7,29.87,NNW,336,1.0,1.0,36,0.00,,,0.00,Wunderground v.1.15,2013-05-21 05:50:00,
2013-05-20 23:55:00,57.4,31.3,29.87,NNW,336,1.0,1.0,37,0.00,,,0.00,Wunderground v.1.15,2013-05-21 05:55:00,